Location: Staunton
(38.1490°N, 79.0720°W)
Time: 11:42:53
(UTC-04:00)

ISS - Pass Details

Date: 24 May 2020
Orbit: 417 x 420 km, 51.6° (Epoch: 26 May)

Event Time Altitude Azimuth Distance (km) Brightness Sun altitude
Rises 23:20:56 0° 319° (NW) 2,365 1.3 -25.2°
Reaches altitude 10° 23:23:54 10° 347° (NNW) 1,500 0.0 -25.5°
Maximum altitude 23:25:40 13° 19° (NNE) 1,305 -0.8 -25.7°
Enters shadow 23:26:21 13° 33° (NNE) 1,337 -0.9 -25.7°
